Wind_Speed
22 24 23 20 20 18 20 25 24 23 25 25 26 26 26 26 25 24 24 24 26 26 28 28 24 22 22 21 22 21 21 20 19 18 17 15 14 12 12 11 11 11 10
25 25 26 24 22 19 17 19 22 23 23 24 24 27 27 27 28 26 26 26 26 31 28 33 31 26 24 23 24 24 25 24 22 21 20 19 18 16 14 14 13 13 13
26 26 25 25 25 22 19 17 15 12 16 19 22 23 24 27 29 28 29 30 29 31 32 33 34 31 28 28 27 27 28 28 27 25 23 22 21 20 18 16 16 14 14
27 27 27 23 21 19 18 16 14 14 15 17 19 21 22 23 24 26 30 31 31 34 35 35 34 34 33 31 30 30 31 30 29 28 26 24 23 22 21 20 19 18 16
28 29 25 28 23 21 18 16 14 15 16 17 19 20 22 24 25 28 31 31 32 34 35 37 37 41 38 35 34 35 33 33 33 31 31 29 27 27 25 23 22 21 20
27 27 26 19 19 18 18 15 13 13 14 17 19 21 25 27 30 32 33 33 34 35 42 44 41 41 42 41 38 36 37 36 36 35 34 33 31 29 28 26 24 24 22
16 15 18 14 10 12 6 2 3 5 10 12 15 20 22 24 28 30 31 33 34 36 39 43 46 47 44 44 43 41 39 40 37 37 37 35 36 33 31 29 27 26 25
9 5 4 4 3 2 2 3 4 7 8 12 6 14 6 8 17 23 27 33 37 37 37 42 45 45 47 47 47 46 46 42 41 39 41 38 35 35 33 32 31 29 28
11 10 10 6 3 12 13 13 12 10 7 13 12 9 4 4 3 11 19 26 31 34 37 37 40 44 45 45 45 51 48 48 42 45 42 41 39 36 35 34 33 31 31
12 13 11 12 14 13 13 13 17 11 8 8 12 8 20 25 9 14 22 23 29 35 37 36 37 40 43 41 43 48 48 50 45 50 45 43 40 40 40 37 36 34 33
12 12 15 15 15 15 11 12 11 10 12 8 10 8 12 17 24 12 15 13 24 29 38 38 38 40 41 42 45 46 49 53 54 53 48 44 41 42 40 38 39 38 38
20 18 17 18 18 17 16 12 10 11 11 12 12 11 9 4 8 8 7 12 15 27 33 38 39 41 42 42 44 46 47 50 51 52 51 43 40 39 40 38 41 41 41
20 21 20 20 19 17 16 14 14 16 16 13 12 13 13 10 11 9 12 10 8 24 26 31 37 39 39 40 43 45 46 46 45 47 48 47 42 39 38 38 43 41 42
16 16 16 16 15 15 14 14 13 13 14 15 16 16 13 13 17 13 13 13 9 11 23 28 19 33 37 38 42 43 45 46 44 44 46 43 41 40 36 34 38 38 39
14 14 15 15 15 16 16 17 16 16 15 15 14 16 15 14 13 13 16 11 9 7 11 13 10 23 28 23 38 39 40 40 40 40 41 40 40 37 34 30 30 32 35
14 14 15 15 15 16 15 15 17 18 17 17 16 17 18 16 12 13 11 10 11 16 6 20 22 28 30 28 22 23 31 35 40 39 39 34 29 26 24 29 35 32 32
13 14 14 15 15 15 15 14 16 18 19 19 18 19 19 19 19 21 20 14 13 11 9 24 25 27 27 29 29 25 18 26 31 29 26 29 31 29 24 29 30 29 29
14 14 14 14 15 15 15 11 17 18 19 20 21 21 20 19 20 21 19 13 14 14 16 14 23 25 27 23 26 24 23 17 10 12 27 33 34 37 34 33 33 34 36
15 14 14 15 16 16 15 13 18 17 18 19 20 20 18 18 20 21 18 17 16 13 14 16 18 20 22 22 25 20 17 19 17 14 9 11 12 22 31 34 34 35 34
10 11 11 11 13 13 11 14 15 15 17 18 20 20 18 19 19 20 17 19 13 17 18 15 16 18 18 22 20 18 20 22 23 17 13 12 9 10 13 16 23 26 29
10 11 12 13 14 14 13 14 15 15 14 18 18 22 21 17 16 18 19 19 15 16 16 15 14 15 15 19 16 18 17 21 21 9 14 11 14 13 13 11 16 19 23
11 12 13 14 15 15 12 13 14 16 16 15 17 22 22 19 20 20 18 17 15 13 14 12 9 12 15 15 17 18 16 15 5 8 27 22 22 19 17 16 17 18 19
14 14 15 15 16 17 15 15 15 16 15 12 17 21 21 20 22 21 20 21 19 12 14 15 15 16 15 19 19 18 18 16 15 24 25 22 21 26 20 20 21 19 19
13 13 14 15 15 15 14 16 16 17 16 17 18 20 20 20 22 19 21 22 22 20 20 18 18 19 20 21 18 20 21 22 22 23 17 9 15 19 22 24 22 20 17
13 13 14 13 14 13 13 14 14 15 17 18 19 15 17 21 21 21 21 22 23 25 27 20 20 22 22 19 18 19 19 14 9 16 22 17 17 20 24 26 24 19 16
11 13 12 12 10 11 13 12 14 16 16 17 14 17 18 18 20 20 21 23 18 23 27 26 24 23 21 21 16 15 15 12 11 9 1 14 16 12 7 7 11 12 16
Wind_Direction
270 265 257 255 257 257 252 247 246 250 247 247 249 250 254 256 257 253 254 252 246 244 240 238 234 234 230 230 230 232 230 229 230 231 236 240 243 243 240 234 232 231 233
268 270 258 253 250 241 243 246 249 255 255 255 256 253 254 259 261 257 255 257 256 243 246 239 245 236 231 233 236 236 237 234 230 232 235 238 240 243 243 239 235 236 233
273 268 262 253 251 243 235 235 247 252 258 259 262 266 271 269 263 263 264 260 260 251 246 243 243 246 242 234 234 237 241 242 240 236 235 237 239 240 240 239 237 234 226
284 273 259 250 243 232 229 231 232 243 251 255 265 268 269 273 274 269 264 265 266 256 249 244 244 247 247 241 237 239 238 243 245 243 241 237 239 241 242 239 235 234 232
290 267 256 251 245 239 235 239 243 249 253 261 267 275 278 279 278 279 279 275 266 257 250 246 251 243 244 244 245 239 239 241 242 244 244 242 240 241 242 241 235 233 233
290 281 253 263 255 247 247 241 245 253 264 274 280 280 282 283 283 283 280 276 271 264 254 249 250 247 244 247 247 247 242 240 242 243 246 245 243 242 240 236 233 234 233
307 301 271 264 233 230 226 205 271 296 293 303 307 296 287 282 273 271 274 272 268 264 259 255 250 250 248 244 246 246 250 241 239 241 244 246 246 243 241 233 232 230 231
353 324 2 252 236 195 306 321 334 346 313 312 291 296 293 292 268 272 268 265 266 264 254 252 250 249 249 247 247 249 247 247 240 238 242 241 242 241 240 234 229 227 228
37 42 34 35 334 50 30 25 5 348 311 294 292 280 299 260 334 277 272 268 261 256 255 250 249 248 247 248 248 253 248 247 245 244 237 239 238 240 241 237 231 227 227
51 49 51 50 35 42 28 31 37 22 358 325 321 293 288 276 278 288 273 263 264 259 254 250 248 248 248 245 249 250 248 237 248 246 242 237 237 239 240 239 233 232 228
51 52 45 51 52 53 40 35 14 8 23 16 2 336 335 327 286 277 283 262 261 257 256 256 251 251 251 253 249 245 247 250 250 243 244 243 234 236 234 234 233 230 229
43 46 45 48 46 42 41 34 12 7 1 5 0 351 353 347 333 317 321 321 289 265 257 251 248 247 248 253 256 252 247 248 245 244 243 245 239 237 235 233 234 231 229
31 28 26 29 29 25 21 15 18 21 15 4 354 350 355 343 342 329 335 338 316 312 264 250 241 245 247 249 251 250 245 245 243 248 247 238 241 239 238 238 235 232 233
31 25 24 22 18 16 13 15 11 8 3 5 3 2 350 344 355 355 3 338 332 335 311 244 247 242 250 251 250 255 247 247 253 249 249 238 245 243 240 238 240 238 237
28 22 19 16 13 12 8 7 10 8 3 0 353 346 342 352 357 345 353 357 339 323 318 12 333 11 355 287 252 251 248 250 249 253 248 245 234 239 243 239 239 239 236
16 13 12 10 7 7 3 4 8 4 2 359 353 351 355 352 347 347 349 352 6 318 297 336 324 335 339 346 347 285 245 245 251 248 241 227 229 229 235 238 236 236 237
4 4 3 3 4 4 1 0 3 1 2 359 357 353 351 353 350 351 355 357 354 329 300 310 317 330 332 340 338 348 321 276 271 264 244 230 228 230 241 241 242 243 242
357 357 357 358 358 357 356 358 359 358 359 359 357 353 350 351 347 347 348 344 335 333 329 321 323 326 328 341 341 337 336 348 313 264 258 254 253 250 255 244 247 247 250
352 354 355 356 354 352 353 348 348 345 350 354 354 352 348 347 341 342 341 339 343 336 334 321 317 321 333 342 341 343 348 342 337 349 333 279 251 249 244 244 248 249 249
346 351 352 352 349 346 346 342 339 339 341 346 350 353 350 343 339 339 339 335 337 343 339 329 325 326 338 336 346 352 347 342 342 336 335 318 327 304 277 252 254 250 247
346 347 347 349 352 353 347 338 337 338 339 341 348 353 349 346 340 337 329 326 331 334 339 333 329 327 332 334 343 337 332 336 342 9 2 348 331 320 316 308 279 263 256
340 343 347 350 353 355 348 344 340 336 336 336 344 349 347 344 341 338 340 332 315 318 333 332 324 323 323 337 346 343 341 350 336 323 342 323 320 312 312 309 311 289 282
340 344 346 349 349 350 346 343 342 338 335 338 339 342 342 344 344 341 333 332 339 311 322 322 318 316 314 330 332 334 330 320 304 305 316 303 304 304 306 304 300 300 291
336 343 344 344 343 347 348 342 339 339 339 337 336 335 332 334 336 332 332 330 328 324 322 314 307 309 311 312 315 319 313 306 306 306 316 288 308 298 295 289 287 289 295
333 337 339 340 340 342 343 341 337 342 337 331 329 328 328 325 326 325 325 324 322 317 314 306 298 297 299 299 301 314 317 316 308 307 307 290 285 300 298 289 278 282 287
327 329 330 334 335 332 335 334 331 329 329 330 330 324 322 317 317 316 316 315 312 309 315 315 312 308 307 296 288 302 307 292 305 310 120 11 337 353 323 306 331 298 280
Height
795 795 795 794 794 793 793 794 795 796 798 798 799 799 800 800 799 800 801 803 804 805 805 806 806 807 808 809 810 810 810 810 810 812 813 813 814 814 814 814 815 815 816
791 791 790 790 790 790 789 790 791 792 793 794 794 794 794 795 796 796 796 797 798 800 800 800 801 802 803 805 806 807 807 807 807 808 809 810 810 811 812 812 812 812 813
787 786 786 786 786 787 786 785 787 788 789 789 790 790 790 790 791 791 792 792 793 794 795 795 796 798 798 799 800 801 802 803 804 804 804 805 806 807 807 809 809 808 809
783 782 782 782 782 782 783 782 783 784 785 785 785 785 785 786 785 786 787 787 786 787 789 789 791 792 794 793 794 795 796 798 799 800 800 800 802 803 804 805 805 806 805
778 777 777 778 779 778 780 780 779 781 781 781 781 781 781 781 780 781 781 781 782 781 780 782 783 784 786 786 786 788 790 790 792 794 795 796 796 797 799 800 800 801 802
774 773 772 773 775 776 776 777 776 777 778 778 778 776 775 775 774 773 773 773 773 773 774 774 775 775 778 778 779 780 782 784 785 787 788 790 791 792 793 795 796 797 798
770 770 770 771 771 773 775 773 772 773 773 775 775 772 769 767 766 766 765 763 763 763 764 765 765 766 767 769 770 771 773 775 778 779 780 782 784 785 788 789 791 791 793
771 770 770 769 770 769 770 768 768 770 771 773 774 772 765 758 757 757 756 755 754 754 754 755 756 757 757 759 760 762 764 766 768 770 772 772 775 778 780 782 783 784 786
774 772 773 771 773 769 765 766 766 767 770 771 773 773 765 759 755 752 750 750 748 748 747 747 747 748 748 749 750 750 752 755 757 759 762 765 765 769 772 774 777 778 780
776 776 775 770 768 764 766 770 763 772 771 770 768 767 766 762 755 743 743 741 741 740 739 739 738 739 740 740 739 739 740 744 747 750 753 756 756 760 763 766 768 771 773
779 775 775 774 771 767 772 768 773 774 771 772 769 765 761 758 755 748 732 729 731 731 730 731 730 730 730 731 730 730 731 733 736 740 743 746 748 750 753 756 759 762 764
781 776 776 774 773 775 775 776 777 773 772 769 766 769 765 764 759 756 744 733 727 722 722 720 719 718 720 719 719 719 721 723 726 729 732 736 740 742 746 745 750 752 756
783 780 777 774 774 775 774 774 772 771 768 770 769 768 765 765 760 753 749 740 734 720 713 709 708 709 709 709 709 710 711 713 716 720 723 726 730 733 736 737 741 742 746
789 786 782 779 779 777 777 775 774 772 771 768 766 766 766 764 758 752 750 745 730 720 710 699 699 701 701 701 700 701 703 705 707 709 713 716 720 724 727 730 733 735 738
792 790 788 785 783 780 778 774 773 771 770 769 768 767 764 760 756 753 751 746 740 734 722 704 702 699 697 696 695 695 695 696 698 700 703 707 711 715 718 721 726 729 732
794 791 789 786 783 780 778 776 773 772 770 768 767 764 761 757 755 753 750 744 739 742 729 717 713 707 702 696 691 690 686 688 691 693 696 699 702 706 709 713 718 721 724
791 788 786 784 781 779 776 774 773 771 769 767 764 761 758 755 753 750 747 742 739 740 734 718 717 710 705 696 691 688 686 683 684 686 687 692 696 698 702 707 710 713 716
790 788 785 783 781 779 777 775 773 770 767 765 762 759 756 754 751 748 745 742 740 737 733 725 718 710 707 699 695 690 689 685 681 679 682 684 686 691 693 696 700 703 707
788 786 784 781 779 777 775 774 772 770 767 764 761 758 755 753 750 746 743 740 738 735 732 728 720 715 707 700 697 694 690 687 683 680 679 679 679 681 684 688 690 693 695
786 784 782 780 778 775 773 771 769 767 765 763 760 757 754 751 747 744 741 738 736 733 729 726 719 713 708 705 701 696 691 689 684 681 678 680 676 677 679 679 682 684 686
784 782 780 778 775 773 771 769 767 765 762 760 757 754 751 748 745 742 739 735 732 730 727 724 719 715 711 707 703 700 697 690 684 682 680 678 678 677 677 676 677 677 679
782 780 777 774 772 770 769 767 764 761 758 756 753 751 748 745 742 739 736 734 732 728 725 722 720 717 714 710 705 703 698 693 689 683 682 677 678 675 674 672 672 672 672
780 777 776 773 770 768 766 764 761 758 755 753 751 748 745 743 739 735 733 730 728 726 724 721 718 716 712 709 706 702 699 698 694 689 687 678 676 671 670 669 670 669 666
777 774 773 770 768 765 762 761 759 756 753 751 748 746 743 740 738 734 730 727 725 722 720 717 715 712 709 707 705 702 698 694 690 686 686 678 674 671 668 667 667 666 663
774 772 770 768 765 763 761 758 756 753 751 749 746 743 740 737 734 730 727 724 721 718 715 713 711 708 705 703 701 698 694 692 687 683 681 678 672 669 666 662 662 661 660
771 769 767 766 764 761 758 756 753 750 747 745 743 740 738 735 731 727 724 720 716 713 709 706 704 702 700 698 696 695 692 690 688 683 677 678 674 671 663 658 657 657 657